Location: Burzi?i
(45.0869°N, 16.0577°E)
Time: 03:15:32
(UTC+00:00)

YAOGAN 1 - Pass Details

Date: 29 October 2020
Orbit: 618 x 620 km, 97.9° (Epoch: 01 December)

Event Time Altitude Azimuth Distance (km) Brightness Sun altitude
Rises 17:13:46 0° 155° (SSE) 2,885 5.8 -15.7°
Reaches altitude 10° 17:15:57 10° 151° (SSE) 1,983 4.9 -16.1°
Maximum altitude 17:20:11 58° 73° (ENE) 727 2.5 -16.8°
Drops below altitude 10° 17:24:27 10° 355° (N) 1,998 5.2 -17.6°
Sets 17:26:41 0° 351° (N) 2,909 6.1 -18.0°
